| time (UTC) | temp F | wind direction | speed knots | gust knots | rain 1hr in | rain 24hr in | rain mn in | humidity % | barometer mb |
| 20260510045009 | 68 | 257 | 2.6 | 5.2 | 0.00 | 0.02 | 0.00 | 64 | 1028.9 |
| 20260510044008 | 66 | 264 | 1.7 | 7.0 | 0.00 | 0.02 | 0.00 | 65 | 1028.9 |
| 20260510043009 | 65 | 271 | 2.6 | 7.0 | 0.00 | 0.02 | 0.00 | 65 | 1028.9 |
| 20260510042009 | 65 | 270 | 1.7 | 5.2 | 0.00 | 0.02 | 0.00 | 67 | 1029.0 |
| 20260510041009 | 64 | 270 | 1.7 | 5.2 | 0.00 | 0.02 | 0.00 | 65 | 1029.1 |
| 20260510040009 | 65 | 271 | 1.7 | 2.6 | 0.00 | 0.02 | 0.00 | 63 | 1029.1 |
| 20260510035009 | 66 | 271 | 1.7 | 2.6 | 0.00 | 0.02 | 0.00 | 64 | 1029.2 |
| 20260510034009 | 67 | 271 | 0.9 | 2.6 | 0.00 | 0.02 | 0.00 | 65 | 1029.1 |
| 20260510033009 | 66 | 271 | 0.9 | 2.6 | 0.00 | 0.02 | 0.00 | 67 | 1029.2 |
| 20260510032009 | 65 | 202 | 1.7 | 2.6 | 0.00 | 0.02 | 0.00 | 67 | 1029.1 |
| 20260510031009 | 65 | 202 | 1.7 | 2.6 | 0.00 | 0.02 | 0.00 | 67 | 1029.1 |
| 20260510030009 | 64 | 202 | 1.7 | 2.6 | 0.00 | 0.02 | 0.00 | 70 | 1029.3 |
| 20260510025009 | 63 | 202 | 1.7 | 2.6 | 0.00 | 0.02 | 0.00 | 70 | 1029.4 |
| 20260510024009 | 63 | 202 | 1.7 | 2.6 | 0.00 | 0.02 | 0.00 | 70 | 1029.5 |
| 20260510023009 | 62 | 202 | 1.7 | 2.6 | 0.00 | 0.02 | 0.00 | 71 | 1029.6 |
| 20260510022009 | 61 | 202 | 0.9 | 2.6 | 0.00 | 0.02 | 0.00 | 70 | 1029.7 |
| 20260510021008 | 61 | 202 | 0.9 | 2.6 | 0.00 | 0.02 | 0.00 | 71 | 1029.9 |
| 20260510020009 | 61 | 202 | 1.7 | 2.6 | 0.00 | 0.02 | 0.00 | 71 | 1030.1 |
| 20260510015008 | 61 | 202 | 2.6 | 5.2 | 0.00 | 0.02 | 0.00 | 72 | 1030.3 |
| 20260510014009 | 61 | 202 | 1.7 | 2.6 | 0.00 | 0.02 | 0.00 | 71 | 1030.3 |
| 20260510013009 | 61 | 202 | 1.7 | 4.3 | 0.00 | 0.02 | 0.00 | 71 | 1030.4 |
| 20260510012009 | 61 | 202 | 0.9 | 4.3 | 0.00 | 0.02 | 0.00 | 72 | 1030.4 |
| 20260510011009 | 61 | 202 | 1.7 | 2.6 | 0.00 | 0.02 | 0.00 | 73 | 1030.4 |
| 20260510010008 | 61 | 202 | 0.9 | 2.6 | 0.00 | 0.02 | 0.00 | 75 | 1030.4 |
| 20260510005009 | 61 | 202 | 1.7 | 4.3 | 0.00 | 0.02 | 0.00 | 77 | 1030.3 |
| 20260510004009 | 60 | 202 | 1.7 | 2.6 | 0.00 | 0.02 | 0.00 | 81 | 1030.3 |
| 20260510003009 | 59 | 202 | 1.7 | 2.6 | 0.00 | 0.02 | 0.00 | 86 | 1030.3 |
| 20260510002009 | 58 | 202 | 0.9 | 2.6 | 0.00 | 0.02 | 0.00 | 89 | 1030.3 |
| 20260510001009 | 58 | 202 | 0.9 | 2.6 | 0.00 | 0.02 | 0.00 | 90 | 1030.3 |
| 20260510000009 | 57 | 202 | 0.9 | 2.6 | 0.00 | 0.02 | 0.00 | 91 | 1030.4 |
| 20260509235009 | 57 | 202 | 1.7 | 2.6 | 0.00 | 0.02 | 0.00 | 91 | 1030.4 |
| 20260509234009 | 56 | 202 | 0.0 | 2.6 | 0.00 | 0.02 | 0.00 | 91 | 1030.3 |
| 20260509233009 | 56 | 202 | 0.9 | 2.6 | 0.00 | 0.02 | 0.00 | 91 | 1030.3 |
| 20260509232009 | 56 | 202 | 0.9 | 2.6 | 0.00 | 0.02 | 0.00 | 91 | 1030.3 |
| 20260509231008 | 56 | 202 | 0.9 | 1.7 | 0.00 | 0.02 | 0.00 | 91 | 1030.2 |
| 20260509230009 | 56 | 202 | 0.0 | 2.6 | 0.00 | 0.02 | 0.00 | 91 | 1030.2 |
| 20260509225009 | 56 | 202 | 1.7 | 2.6 | 0.00 | 0.02 | 0.00 | 91 | 1030.2 |
| 20260509224009 | 55 | 202 | 0.9 | 1.7 | 0.00 | 0.03 | 0.00 | 91 | 1030.1 |
| 20260509223009 | 55 | 202 | 0.9 | 1.7 | 0.00 | 0.03 | 0.00 | 91 | 1030.0 |
| 20260509222011 | 55 | 202 | 0.0 | 0.0 | 0.00 | 0.03 | 0.00 | 91 | 1029.9 |
| 20260509221009 | 54 | 202 | 0.0 | 0.9 | 0.00 | 0.03 | 0.00 | 91 | 1029.8 |
| 20260509220009 | 54 | 202 | 0.0 | 0.9 | 0.00 | 0.03 | 0.00 | 91 | 1029.7 |
| 20260509215009 | 54 | 202 | 0.0 | 0.9 | 0.00 | 0.03 | 0.00 | 91 | 1029.5 |
| 20260509214009 | 54 | 202 | 0.0 | 0.0 | 0.00 | 0.03 | 0.00 | 91 | 1029.4 |
| 20260509213009 | 54 | 202 | 0.0 | 0.0 | 0.00 | 0.03 | 0.00 | 91 | 1029.2 |
| 20260509212009 | 54 | 202 | 0.0 | 0.9 | 0.00 | 0.03 | 0.00 | 91 | 1029.1 |
| 20260509211009 | 54 | 202 | 0.0 | 0.9 | 0.00 | 0.03 | 0.00 | 91 | 1028.9 |
| 20260509210009 | 54 | 202 | 0.0 | 1.7 | 0.00 | 0.03 | 0.00 | 91 | 1028.8 |
| 20260509205009 | 54 | 202 | 0.9 | 1.7 | 0.00 | 0.03 | 0.00 | 91 | 1028.8 |
| 20260509204009 | 54 | 202 | 0.0 | 0.0 | 0.00 | 0.03 | 0.00 | 91 | 1028.7 |
| 20260509203009 | 54 | 202 | 0.0 | 1.7 | 0.00 | 0.04 | 0.00 | 91 | 1028.6 |
| 20260509202009 | 54 | 202 | 0.9 | 1.7 | 0.00 | 0.04 | 0.00 | 91 | 1028.5 |
| 20260509201009 | 54 | 202 | 0.9 | 1.7 | 0.00 | 0.04 | 0.00 | 91 | 1028.5 |
| 20260509200009 | 54 | 202 | 0.0 | 1.7 | 0.00 | 0.04 | 0.00 | 91 | 1028.4 |
| 20260509195009 | 54 | 202 | 0.9 | 1.7 | 0.00 | 0.04 | 0.00 | 91 | 1028.3 |
| 20260509194009 | 54 | 202 | 0.0 | 1.7 | 0.00 | 0.07 | 0.00 | 91 | 1028.1 |
| 20260509193009 | 54 | 202 | 0.9 | 2.6 | 0.00 | 0.07 | 0.00 | 91 | 1028.1 |
| 20260509192009 | 54 | 202 | 0.9 | 2.6 | 0.00 | 0.07 | 0.00 | 91 | 1028.0 |
| 20260509191009 | 54 | 202 | 0.0 | 0.9 | 0.00 | 0.07 | 0.00 | 91 | 1027.9 |
| 20260509190009 | 54 | 202 | 0.9 | 1.7 | 0.00 | 0.07 | 0.00 | 91 | 1027.8 |
| 20260509185009 | 54 | 202 | 0.0 | 1.7 | 0.00 | 0.09 | 0.00 | 91 | 1027.7 |
| 20260509184009 | 54 | 202 | 0.9 | 1.7 | 0.00 | 0.09 | 0.00 | 91 | 1027.7 |
| 20260509183009 | 55 | 202 | 0.0 | 1.7 | 0.00 | 0.09 | 0.00 | 91 | 1027.6 |
| 20260509182009 | 55 | 202 | 0.0 | 1.7 | 0.00 | 0.09 | 0.00 | 91 | 1027.5 |
| 20260509181010 | 55 | 202 | 0.9 | 2.6 | 0.00 | 0.09 | 0.00 | 91 | 1027.4 |
| 20260509180009 | 55 | 202 | 0.9 | 2.6 | 0.00 | 0.09 | 0.00 | 91 | 1027.3 |
| 20260509175008 | 55 | 202 | 0.9 | 2.6 | 0.00 | 0.09 | 0.00 | 91 | 1027.2 |
| 20260509174008 | 55 | 202 | 0.9 | 2.6 | 0.00 | 0.09 | 0.00 | 91 | 1027.3 |
| 20260509173009 | 55 | 202 | 1.7 | 2.6 | 0.00 | 0.09 | 0.00 | 91 | 1027.2 |
| 20260509172010 | 55 | 202 | 0.9 | 2.6 | 0.00 | 0.09 | 0.00 | 91 | 1027.3 |
| 20260509171009 | 55 | 202 | 0.0 | 2.6 | 0.00 | 0.09 | 0.00 | 91 | 1027.4 |
| 20260509170009 | 55 | 202 | 0.9 | 2.6 | 0.00 | 0.09 | 0.00 | 91 | 1027.4 |
| 20260509165008 | 55 | 202 | 1.7 | 4.3 | 0.00 | 0.09 | 0.00 | 91 | 1027.5 |
| 20260509164009 | 55 | 202 | 2.6 | 5.2 | 0.00 | 0.09 | 0.00 | 91 | 1027.4 |
| 20260509163008 | 55 | 202 | 0.9 | 2.6 | 0.00 | 0.09 | 0.00 | 91 | 1027.5 |
| 20260509162009 | 55 | 202 | 1.7 | 2.6 | 0.00 | 0.09 | 0.00 | 91 | 1027.5 |
| 20260509161009 | 55 | 202 | 0.9 | 4.3 | 0.00 | 0.09 | 0.00 | 91 | 1027.6 |
| 20260509160010 | 56 | 202 | 1.7 | 4.3 | 0.00 | 0.09 | 0.00 | 91 | 1027.6 |
| 20260509155009 | 56 | 202 | 1.7 | 5.2 | 0.00 | 0.09 | 0.00 | 91 | 1027.6 |
| 20260509154009 | 56 | 202 | 2.6 | 4.3 | 0.00 | 0.09 | 0.00 | 91 | 1027.6 |
| 20260509153009 | 56 | 202 | 2.6 | 5.2 | 0.00 | 0.09 | 0.00 | 91 | 1027.7 |
| 20260509152009 | 55 | 202 | 1.7 | 2.6 | 0.00 | 0.09 | 0.00 | 91 | 1027.7 |
| 20260509151009 | 55 | 202 | 1.7 | 4.3 | 0.00 | 0.09 | 0.00 | 91 | 1027.8 |
| 20260509150009 | 55 | 202 | 2.6 | 6.1 | 0.00 | 0.09 | 0.00 | 91 | 1027.8 |
| 20260509145009 | 55 | 202 | 2.6 | 4.3 | 0.00 | 0.09 | 0.00 | 91 | 1027.7 |
| 20260509144008 | 55 | 202 | 2.6 | 2.6 | 0.00 | 0.09 | 0.00 | 91 | 1027.6 |
| 20260509143009 | 55 | 202 | 1.7 | 4.3 | 0.00 | 0.09 | 0.00 | 91 | 1027.6 |
| 20260509142009 | 56 | 202 | 1.7 | 2.6 | 0.00 | 0.09 | 0.00 | 91 | 1027.6 |
| 20260509141008 | 56 | 202 | 1.7 | 4.3 | 0.00 | 0.09 | 0.00 | 91 | 1027.7 |
| 20260509140008 | 56 | 202 | 1.7 | 2.6 | 0.00 | 0.09 | 0.00 | 91 | 1027.7 |
| 20260509135009 | 56 | 202 | 0.9 | 2.6 | 0.00 | 0.09 | 0.09 | 91 | 1027.7 |
| 20260509134009 | 56 | 202 | 1.7 | 2.6 | 0.00 | 0.09 | 0.09 | 91 | 1027.7 |
| 20260509133009 | 56 | 202 | 0.9 | 2.6 | 0.00 | 0.09 | 0.09 | 91 | 1027.7 |
| 20260509132009 | 56 | 202 | 1.7 | 2.6 | 0.00 | 0.09 | 0.09 | 91 | 1027.8 |
| 20260509131009 | 56 | 202 | 1.7 | 2.6 | 0.00 | 0.09 | 0.09 | 91 | 1027.8 |
| 20260509130010 | 56 | 202 | 1.7 | 2.6 | 0.00 | 0.09 | 0.09 | 91 | 1027.8 |
| 20260509125009 | 56 | 202 | 0.0 | 2.6 | 0.01 | 0.09 | 0.09 | 91 | 1027.8 |
| 20260509124008 | 56 | 202 | 1.7 | 2.6 | 0.02 | 0.09 | 0.09 | 91 | 1027.9 |
| 20260509123009 | 56 | 202 | 1.7 | 2.6 | 0.02 | 0.09 | 0.09 | 91 | 1027.9 |
| 20260509122009 | 56 | 202 | 0.9 | 2.6 | 0.02 | 0.09 | 0.09 | 90 | 1027.9 |
| 20260509121009 | 56 | 202 | 0.9 | 2.6 | 0.02 | 0.09 | 0.09 | 90 | 1027.9 |
| 20260509120009 | 57 | 202 | 1.7 | 2.6 | 0.02 | 0.09 | 0.09 | 91 | 1027.8 |
| 20260509115009 | 57 | 202 | 1.7 | 6.1 | 0.01 | 0.08 | 0.08 | 91 | 1027.7 |
| 20260509114009 | 57 | 202 | 1.7 | 2.6 | 0.00 | 0.07 | 0.07 | 90 | 1027.7 |
| 20260509113008 | 57 | 202 | 0.9 | 2.6 | 0.00 | 0.07 | 0.07 | 90 | 1027.6 |
| 20260509112011 | 57 | 202 | 0.9 | 2.6 | 0.00 | 0.07 | 0.07 | 90 | 1027.6 |
| 20260509111009 | 57 | 202 | 1.7 | 2.6 | 0.00 | 0.07 | 0.07 | 90 | 1027.5 |
| 20260509110009 | 57 | 202 | 1.7 | 2.6 | 0.00 | 0.07 | 0.07 | 90 | 1027.5 |
| 20260509105009 | 57 | 202 | 2.6 | 4.3 | 0.00 | 0.07 | 0.07 | 90 | 1027.5 |
| 20260509104009 | 57 | 202 | 1.7 | 4.3 | 0.00 | 0.07 | 0.07 | 90 | 1027.4 |
| 20260509103009 | 57 | 202 | 1.7 | 6.1 | 0.00 | 0.07 | 0.07 | 89 | 1027.4 |
| 20260509102009 | 57 | 202 | 2.6 | 6.1 | 0.00 | 0.07 | 0.07 | 89 | 1027.4 |
| 20260509101009 | 57 | 200 | 2.6 | 6.1 | 0.00 | 0.07 | 0.07 | 89 | 1027.4 |
| 20260509100009 | 57 | 193 | 2.6 | 6.1 | 0.00 | 0.07 | 0.07 | 89 | 1027.3 |
| 20260509095009 | 57 | 192 | 0.9 | 2.6 | 0.00 | 0.07 | 0.07 | 89 | 1027.3 |
| 20260509094009 | 57 | 192 | 0.9 | 2.6 | 0.00 | 0.07 | 0.07 | 89 | 1027.3 |
| 20260509093009 | 57 | 192 | 1.7 | 4.3 | 0.00 | 0.07 | 0.07 | 89 | 1027.3 |
| 20260509092009 | 57 | 192 | 1.7 | 2.6 | 0.00 | 0.07 | 0.07 | 89 | 1027.2 |
| 20260509091009 | 57 | 192 | 1.7 | 2.6 | 0.00 | 0.07 | 0.07 | 89 | 1027.2 |
| 20260509090009 | 57 | 192 | 1.7 | 4.3 | 0.00 | 0.07 | 0.07 | 88 | 1027.2 |
| 20260509085009 | 57 | 192 | 2.6 | 6.1 | 0.00 | 0.07 | 0.07 | 88 | 1027.0 |
| 20260509084009 | 57 | 184 | 2.6 | 4.3 | 0.00 | 0.07 | 0.07 | 88 | 1026.9 |
| 20260509083009 | 57 | 184 | 1.7 | 4.3 | 0.00 | 0.07 | 0.07 | 88 | 1026.9 |
| 20260509082011 | 57 | 184 | 1.7 | 4.3 | 0.00 | 0.07 | 0.07 | 88 | 1026.7 |
| 20260509081009 | 57 | 184 | 1.7 | 2.6 | 0.00 | 0.07 | 0.07 | 88 | 1026.6 |
| 20260509080009 | 57 | 184 | 0.9 | 2.6 | 0.00 | 0.07 | 0.07 | 88 | 1026.4 |
| 20260509075009 | 57 | 184 | 0.9 | 4.3 | 0.00 | 0.07 | 0.07 | 88 | 1026.4 |
| 20260509074009 | 58 | 184 | 2.6 | 5.2 | 0.00 | 0.07 | 0.07 | 87 | 1026.2 |
| 20260509073009 | 58 | 183 | 1.7 | 4.3 | 0.00 | 0.07 | 0.07 | 87 | 1026.2 |
| 20260509072009 | 58 | 183 | 0.9 | 2.6 | 0.00 | 0.07 | 0.07 | 87 | 1026.0 |
| 20260509071009 | 58 | 183 | 0.9 | 2.6 | 0.00 | 0.07 | 0.07 | 87 | 1025.9 |
| 20260509070009 | 59 | 183 | 2.6 | 4.3 | 0.00 | 0.07 | 0.07 | 87 | 1025.9 |
| 20260509065010 | 59 | 183 | 1.7 | 5.2 | 0.00 | 0.07 | 0.07 | 87 | 1025.9 |
| 20260509064009 | 59 | 184 | 3.5 | 6.1 | 0.00 | 0.07 | 0.07 | 86 | 1025.9 |
| 20260509063009 | 60 | 186 | 3.5 | 7.0 | 0.00 | 0.07 | 0.07 | 86 | 1025.8 |
| 20260509062009 | 60 | 183 | 2.6 | 7.0 | 0.00 | 0.07 | 0.07 | 85 | 1025.8 |
| 20260509061009 | 61 | 186 | 5.2 | 7.8 | 0.00 | 0.07 | 0.07 | 84 | 1025.8 |
| 20260509060009 | 61 | 194 | 5.2 | 7.8 | 0.00 | 0.07 | 0.07 | 84 | 1025.8 |
| 20260509055009 | 61 | 194 | 2.6 | 6.1 | 0.00 | 0.07 | 0.07 | 83 | 1025.8 |
| 20260509054009 | 61 | 197 | 2.6 | 6.1 | 0.00 | 0.07 | 0.07 | 83 | 1025.7 |
| 20260509053009 | 61 | 201 | 3.5 | 6.1 | 0.00 | 0.07 | 0.07 | 82 | 1025.7 |
| 20260509052009 | 62 | 206 | 4.3 | 6.1 | 0.00 | 0.07 | 0.07 | 82 | 1025.7 |
| 20260509051009 | 62 | 211 | 4.3 | 7.0 | 0.00 | 0.07 | 0.07 | 81 | 1025.7 |
| 20260509050009 | 63 | 212 | 3.5 | 7.0 | 0.00 | 0.07 | 0.07 | 81 | 1025.6 |